Lufkin, TX

6:51 PM CDT on October 21, 2017 (GMT -0500)
Angelina County

Weather History for KLFK - February, 2012

Change the Weather History Date:

Monday, February 13, 2012

  Actual Average Record
Temperature  
Mean Temperature 43 °F 52 °F  
Max Temperature 48 °F 63 °F 84 °F (1911)
Min Temperature 38 °F 41 °F 18 °F (1958)
Degree Days  
Heating Degree Days 22 13  
Month to date heating degree days 165 183  
Since 1 July heating degree days 1233 1463  
Cooling Degree Days 0 0  
Month to date cooling degree days 15 0  
Year to date cooling degree days 24 8  
Moisture  
Dew Point 38 °F    
Average Humidity 67    
Maximum Humidity 93    
Minimum Humidity 40    
Precipitation  
Precipitation 0.36 in 0.14 in 0.68 in (1927)
Month to date precipitation 1.05 1.82  
Year to date precipitation 6.37 6.00  
Snow  
Snow 0.00 in - - ()
Month to date snowfall 0.0  
Since 1 July snowfall 0.0  
Snow Depth 0.00 in    
Sea Level Pressure  
Sea Level Pressure 30.00 in    
Wind  
Wind Speed 5 mph (ESE)    
Max Wind Speed 16 mph    
Max Gust Speed 21 mph    
Visibility 7 miles    
Events Rain    
T = Trace of Precipitation, MM = Missing Value Source: NWS Daily Summary

Daily Weather History Graph

Daily Weather History Graph

Search for Another Location

Airport or City:

Trip Planner

Search our weather history database for the weather conditions in past years. The results will help you decide how hot, cold, wet, or windy it might be!

Date:

Astronomy

Feb. 13, 2012 Rise Set
Actual Time 7:02 AM CST 6:04 PM CST
Civil Twilight 6:37 AM CST 6:29 PM CST
Nautical Twilight 6:09 AM CST 6:57 PM CST
Astronomical Twilight 5:40 AM CST 7:26 PM CST
Moon No Moon Rise 10:32 AM CST (2/13)
Length of Visible Light 11h 51m
Length of Day
11h 01m
Waning Gibbous, 61% of the Moon is Illuminated
Feb 13
Waning Gibbous
Feb 14
Last Quarter
Feb 21
New
Feb 29
First Quarter
Mar 8
Full

Hourly Weather History & Observations

Time (CST) Temp. Windchill Dew Point Humidity Pressure Visibility Wind Dir Wind Speed Gust Speed Precip Events Conditions
12:53 AM 43.0 °F 37.2 °F 26.1 °F 51% 30.26 in 10.0 mi SE 10.4 mph - 0.00 in   Overcast
1:53 AM 42.1 °F 35.7 °F 26.1 °F 53% 30.22 in 10.0 mi SE 11.5 mph - N/A   Overcast
2:53 AM 42.1 °F 37.1 °F 25.0 °F 51% 30.21 in 10.0 mi SE 8.1 mph - N/A   Overcast
3:53 AM 42.1 °F 37.1 °F 25.0 °F 51% 30.17 in 10.0 mi ESE 8.1 mph - N/A   Overcast
4:53 AM 42.1 °F 36.1 °F 24.1 °F 49% 30.14 in 10.0 mi ESE 10.4 mph - N/A   Overcast
5:53 AM 39.9 °F 33.4 °F 27.0 °F 60% 30.12 in 10.0 mi East 10.4 mph - 0.00 in Rain Light Rain
6:53 AM 37.9 °F 31.5 °F 30.9 °F 76% 30.11 in 10.0 mi East 9.2 mph - 0.02 in Rain Light Rain
7:53 AM 37.9 °F 31.5 °F 33.1 °F 83% 30.11 in 10.0 mi East 9.2 mph - 0.04 in Rain Light Rain
8:23 AM 37.4 °F 31.4 °F 33.8 °F 87% 30.11 in 10.0 mi East 8.1 mph - 0.00 in Rain Light Rain
8:53 AM 37.9 °F 32.7 °F 34.0 °F 86% 30.10 in 10.0 mi East 6.9 mph - 0.00 in Rain Light Rain
9:53 AM 39.0 °F 31.4 °F 35.1 °F 86% 30.05 in 10.0 mi ESE 12.7 mph - 0.03 in Rain Light Rain
10:13 AM 39.2 °F 33.0 °F 35.6 °F 87% 30.07 in 10.0 mi SE 9.2 mph - 0.00 in Rain Light Rain
10:21 AM 39.2 °F 32.0 °F 35.6 °F 87% 30.05 in 10.0 mi ESE 11.5 mph - 0.00 in Rain Light Rain
10:44 AM 39.2 °F 33.0 °F 37.4 °F 93% 30.05 in 10.0 mi East 9.2 mph - 0.00 in Rain Light Rain
10:53 AM 39.9 °F 32.9 °F 37.0 °F 89% 30.05 in 5.0 mi ESE 11.5 mph - 0.02 in Rain Rain
11:05 AM 39.2 °F 32.5 °F 37.4 °F 93% 30.05 in 2.5 mi SE 10.4 mph - 0.05 in Rain Heavy Rain
11:14 AM 41.0 °F 33.5 °F 37.4 °F 87% 30.03 in 3.0 mi SE 13.8 mph - 0.07 in Rain Rain
11:44 AM 42.8 °F 37.0 °F 37.4 °F 81% 30.01 in 7.0 mi ESE 10.4 mph - 0.11 in Rain Rain
11:50 AM 41.0 °F 36.4 °F 37.4 °F 87% 30.01 in 2.5 mi ESE 6.9 mph - 0.15 in Rain Heavy Rain
11:53 AM 41.0 °F 38.0 °F 37.9 °F 89% 30.01 in 2.5 mi East 4.6 mph - 0.16 in Rain Heavy Rain
11:58 AM 41.0 °F 35.8 °F 37.4 °F 87% 30.00 in 3.0 mi East 8.1 mph - 0.01 in Rain Rain
12:53 PM 43.0 °F 39.5 °F 39.0 °F 86% 29.98 in 10.0 mi SE 5.8 mph - 0.01 in   Overcast
1:53 PM 44.1 °F 40.8 °F 41.0 °F 89% 29.93 in 6.0 mi ESE 5.8 mph - 0.04 in Rain Light Rain
2:53 PM 45.0 °F 43.5 °F 42.1 °F 90% 29.91 in 3.0 mi SE 3.5 mph - 0.04 in Rain Light Rain
3:53 PM 46.0 °F 43.1 °F 43.0 °F 89% 29.89 in 9.0 mi East 5.8 mph - 0.00 in   Overcast
4:53 PM 46.9 °F - 44.1 °F 90% 29.88 in 10.0 mi Calm Calm - N/A   Overcast
5:30 PM 46.4 °F - 44.6 °F 93% 29.87 in 10.0 mi Calm Calm - N/A   Overcast
5:53 PM 46.9 °F - 44.1 °F 90% 29.88 in 10.0 mi Calm Calm - N/A   Overcast
6:53 PM 46.9 °F - 45.0 °F 93% 29.89 in 2.5 mi Calm Calm - N/A   Overcast
7:18 PM 46.4 °F - 44.6 °F 93% 29.89 in 1.8 mi Calm Calm - N/A   Overcast
7:29 PM 46.4 °F - 44.6 °F 93% 29.90 in 2.0 mi Calm Calm - N/A   Overcast
7:53 PM 46.9 °F - 45.0 °F 93% 29.91 in 2.0 mi Calm Calm - N/A   Overcast
8:04 PM 46.4 °F - 44.6 °F 93% 29.91 in 1.8 mi Calm Calm - N/A   Overcast
8:18 PM 46.4 °F - 44.6 °F 93% 29.91 in 2.5 mi Calm Calm - N/A   Overcast
8:25 PM 46.4 °F - 44.6 °F 93% 29.91 in 3.0 mi Calm Calm - N/A   Overcast
8:53 PM 46.9 °F - 45.0 °F 93% 29.91 in 6.0 mi Calm Calm - N/A   Overcast
9:53 PM 46.9 °F - 45.0 °F 93% 29.93 in 5.0 mi SSW 3.5 mph - N/A   Overcast
10:02 PM 46.4 °F - 44.6 °F 93% 29.93 in 5.0 mi Calm Calm - N/A   Overcast
10:53 PM 48.0 °F - 45.0 °F 89% 29.94 in 10.0 mi Calm Calm - N/A   Overcast
11:46 PM 48.2 °F - 44.6 °F 87% 29.95 in 10.0 mi NW 3.5 mph - N/A   Overcast
11:53 PM 48.0 °F - 45.0 °F 89% 29.95 in 10.0 mi West 3.5 mph - N/A   Overcast